Time,TemperatureF,DewpointF,PressureIn,WindDirection,WindDirectionDegrees,WindSpeedMPH,WindSpeedGustMPH,Humidity,HourlyPrecipIn,Conditions,Clouds,dailyrainin,SoftwareType,DateUTC
2013-02-04 00:09:00,37.1,27.5,29.83,SSE,149,0.0,2.0,68,0.00,,---,0.00,VWS V14.01,2013-02-04 06:09:00,
2013-02-04 00:24:00,36.6,27.4,29.82,SSE,149,0.0,1.0,69,0.00,,---,0.00,VWS V14.01,2013-02-04 06:24:00,
2013-02-04 00:39:00,36.4,27.6,29.82,SSE,149,1.0,2.0,70,0.00,,---,0.00,VWS V14.01,2013-02-04 06:39:00,
2013-02-04 00:54:00,36.2,27.4,29.82,SSE,149,2.0,2.0,70,0.00,,---,0.00,VWS V14.01,2013-02-04 06:54:00,
2013-02-04 01:09:00,36.0,27.5,29.81,SSE,149,0.0,4.0,71,0.00,,---,0.00,VWS V14.01,2013-02-04 07:09:00,
2013-02-04 01:24:00,35.1,27.0,29.81,SSE,149,0.0,0.0,72,0.00,,---,0.00,VWS V14.01,2013-02-04 07:24:00,
2013-02-04 01:39:00,34.6,27.2,29.80,SSE,149,0.0,0.0,74,0.00,,---,0.00,VWS V14.01,2013-02-04 07:39:00,
2013-02-04 01:54:00,34.4,27.0,29.80,SSE,149,0.0,0.0,74,0.00,,---,0.00,VWS V14.01,2013-02-04 07:54:00,
2013-02-04 02:09:00,34.3,26.9,29.79,SSE,149,0.0,0.0,74,0.00,,---,0.00,VWS V14.01,2013-02-04 08:09:00,
2013-02-04 02:24:00,34.6,27.2,29.79,SSE,149,1.0,2.0,74,0.00,,---,0.00,VWS V14.01,2013-02-04 08:24:00,
2013-02-04 02:39:00,33.8,27.4,29.78,SSE,149,2.0,6.0,77,0.00,,---,0.00,VWS V14.01,2013-02-04 08:39:00,
2013-02-04 02:54:00,33.8,27.7,29.79,SSE,149,0.0,4.0,78,0.00,,---,0.00,VWS V14.01,2013-02-04 08:54:00,
2013-02-04 03:09:00,34.3,27.9,29.78,SSE,149,0.0,0.0,77,0.00,,---,0.00,VWS V14.01,2013-02-04 09:09:00,
2013-02-04 03:24:00,34.9,27.8,29.79,SSE,149,0.0,0.0,75,0.00,,---,0.00,VWS V14.01,2013-02-04 09:24:00,
2013-02-04 03:39:00,35.0,27.9,29.78,SSE,149,0.0,0.0,75,0.00,,---,0.00,VWS V14.01,2013-02-04 09:39:00,
2013-02-04 03:54:00,35.5,27.7,29.78,SSE,149,0.0,0.0,73,0.00,,---,0.00,VWS V14.01,2013-02-04 09:54:00,
2013-02-04 04:09:00,35.4,27.6,29.78,SSE,149,0.0,2.0,73,0.00,,---,0.00,VWS V14.01,2013-02-04 10:09:00,
2013-02-04 04:24:00,36.8,29.0,29.78,SSE,149,2.0,5.0,73,0.00,,---,0.00,VWS V14.01,2013-02-04 10:24:00,
2013-02-04 04:39:00,38.1,28.8,29.78,SSE,149,0.0,5.0,69,0.00,,---,0.00,VWS V14.01,2013-02-04 10:39:00,
2013-02-04 04:54:00,38.4,28.8,29.78,SSE,149,1.0,2.0,68,0.00,,---,0.00,VWS V14.01,2013-02-04 10:54:00,
2013-02-04 05:09:00,38.0,28.8,29.78,SSE,149,2.0,4.0,69,0.00,,---,0.00,VWS V14.01,2013-02-04 11:09:00,
2013-02-04 05:24:00,37.2,28.3,29.78,SSE,149,5.0,5.0,70,0.00,,---,0.00,VWS V14.01,2013-02-04 11:24:00,
2013-02-04 05:39:00,37.6,28.7,29.78,SSE,149,4.0,6.0,70,0.00,,---,0.00,VWS V14.01,2013-02-04 11:39:00,
2013-02-04 05:54:00,37.6,28.7,29.78,SSE,149,4.0,5.0,70,0.00,,---,0.00,VWS V14.01,2013-02-04 11:54:00,
2013-02-04 06:09:00,37.7,28.8,29.78,SSW,208,4.0,6.0,70,0.00,,---,0.00,VWS V14.01,2013-02-04 12:09:00,
2013-02-04 06:24:00,37.8,28.9,29.78,SSW,198,2.0,7.0,70,0.00,,---,0.00,VWS V14.01,2013-02-04 12:24:00,
2013-02-04 06:39:00,38.0,29.1,29.79,SW,230,2.0,7.0,70,0.00,,---,0.00,VWS V14.01,2013-02-04 12:39:00,
2013-02-04 06:54:00,36.6,28.4,29.80,West,277,4.0,5.0,72,0.00,,---,0.00,VWS V14.01,2013-02-04 12:54:00,
2013-02-04 07:09:00,36.8,29.0,29.81,West,273,3.0,6.0,73,0.00,,---,0.00,VWS V14.01,2013-02-04 13:09:00,
2013-02-04 07:24:00,37.1,28.9,29.82,West,276,6.0,8.0,72,0.00,,---,0.00,VWS V14.01,2013-02-04 13:24:00,
2013-02-04 07:39:00,36.6,28.8,29.83,NW,310,1.0,7.0,73,0.00,,---,0.00,VWS V14.01,2013-02-04 13:39:00,
2013-02-04 07:54:00,37.0,29.2,29.83,NW,321,6.0,10.0,73,0.00,,---,0.00,VWS V14.01,2013-02-04 13:54:00,
2013-02-04 08:09:00,37.1,29.6,29.84,NNW,336,4.0,11.0,74,0.00,,---,0.00,VWS V14.01,2013-02-04 14:09:00,
2013-02-04 08:24:00,37.5,30.3,29.85,North,355,8.0,15.0,75,0.00,,---,0.00,VWS V14.01,2013-02-04 14:24:00,
2013-02-04 08:39:00,37.9,30.4,29.85,North,355,6.0,17.0,74,0.00,,---,0.00,VWS V14.01,2013-02-04 14:39:00,
2013-02-04 08:54:00,37.9,30.7,29.86,NNW,340,11.0,17.0,75,0.00,,---,0.00,VWS V14.01,2013-02-04 14:54:00,
2013-02-04 09:09:00,38.1,30.9,29.86,NNW,332,13.0,19.0,75,0.00,,---,0.00,VWS V14.01,2013-02-04 15:09:00,
2013-02-04 09:24:00,38.1,30.9,29.87,NNW,343,6.0,17.0,75,0.00,,---,0.00,VWS V14.01,2013-02-04 15:24:00,
2013-02-04 09:39:00,38.0,30.8,29.88,NNW,348,12.0,19.0,75,0.00,,---,0.00,VWS V14.01,2013-02-04 15:39:00,
2013-02-04 09:54:00,37.8,29.9,29.89,NNW,343,8.0,21.0,73,0.00,,---,0.00,VWS V14.01,2013-02-04 15:54:00,
2013-02-04 10:09:00,37.5,30.3,29.89,NNE,17,13.0,20.0,75,0.00,,---,0.00,VWS V14.01,2013-02-04 16:09:00,
2013-02-04 10:24:00,37.4,30.2,29.89,North,5,11.0,18.0,75,0.00,,---,0.00,VWS V14.01,2013-02-04 16:24:00,
2013-02-04 10:39:00,37.3,30.1,29.90,North,350,9.0,17.0,75,0.00,,---,0.00,VWS V14.01,2013-02-04 16:39:00,
2013-02-04 10:54:00,36.6,29.8,29.91,NNW,344,12.0,18.0,76,0.00,,---,0.00,VWS V14.01,2013-02-04 16:54:00,
2013-02-04 11:09:00,36.4,29.6,29.92,NNW,328,13.0,16.0,76,0.00,,---,0.00,VWS V14.01,2013-02-04 17:09:00,
2013-02-04 11:24:00,35.1,28.3,29.93,NNE,13,11.0,19.0,76,0.00,,---,0.00,VWS V14.01,2013-02-04 17:24:00,
2013-02-04 11:39:00,33.7,27.6,29.94,North,5,17.0,17.0,78,0.00,,---,0.00,VWS V14.01,2013-02-04 17:39:00,
2013-02-04 11:54:00,31.7,26.2,29.95,NNW,346,14.0,18.0,80,0.00,,---,0.00,VWS V14.01,2013-02-04 17:54:00,
2013-02-04 12:09:00,30.0,25.2,29.95,NNW,327,5.0,19.0,82,0.00,,---,0.00,VWS V14.01,2013-02-04 18:09:00,
2013-02-04 12:24:00,29.4,25.2,29.95,NNW,347,9.0,16.0,84,0.00,,---,0.00,VWS V14.01,2013-02-04 18:24:00,
2013-02-04 12:39:00,29.6,25.4,29.95,NNW,348,5.0,17.0,84,0.00,,---,0.00,VWS V14.01,2013-02-04 18:39:00,
2013-02-04 12:54:00,29.6,25.6,29.95,NNW,339,8.0,19.0,85,0.00,,---,0.00,VWS V14.01,2013-02-04 18:54:00,
2013-02-04 13:09:00,29.8,25.6,29.95,North,9,6.0,13.0,84,0.00,,---,0.00,VWS V14.01,2013-02-04 19:09:00,
2013-02-04 13:24:00,29.7,25.8,29.95,NW,322,6.0,12.0,85,0.00,,---,0.00,VWS V14.01,2013-02-04 19:24:00,
2013-02-04 13:39:00,29.8,25.6,29.94,NNW,346,8.0,12.0,84,0.00,,---,0.00,VWS V14.01,2013-02-04 19:39:00,
2013-02-04 13:54:00,29.8,25.6,29.94,NNW,328,4.0,14.0,84,0.00,,---,0.00,VWS V14.01,2013-02-04 19:54:00,
2013-02-04 14:09:00,29.8,25.6,29.94,NNW,340,3.0,13.0,84,0.00,,---,0.00,VWS V14.01,2013-02-04 20:09:00,
2013-02-04 14:24:00,30.2,26.0,29.94,NNW,329,4.0,13.0,84,0.00,,---,0.00,VWS V14.01,2013-02-04 20:24:00,
2013-02-04 14:39:00,29.7,25.2,29.94,NNW,339,3.0,13.0,83,0.00,,---,0.00,VWS V14.01,2013-02-04 20:39:00,
2013-02-04 14:54:00,29.7,25.2,29.95,NW,312,6.0,11.0,83,0.00,,---,0.00,VWS V14.01,2013-02-04 20:54:00,
2013-02-04 15:09:00,29.3,24.5,29.94,NNW,338,4.0,13.0,82,0.00,,---,0.00,VWS V14.01,2013-02-04 21:09:00,
2013-02-04 15:24:00,29.2,24.7,29.95,NNW,334,9.0,16.0,83,0.00,,---,0.00,VWS V14.01,2013-02-04 21:24:00,
2013-02-04 15:39:00,29.2,24.7,29.95,NNW,334,8.0,15.0,83,0.00,,---,0.00,VWS V14.01,2013-02-04 21:39:00,
2013-02-04 15:54:00,29.1,24.6,29.96,North,360,11.0,14.0,83,0.00,,---,0.00,VWS V14.01,2013-02-04 21:54:00,
2013-02-04 16:09:00,29.0,24.5,29.97,NNW,344,7.0,14.0,83,0.00,,---,0.00,VWS V14.01,2013-02-04 22:09:00,
2013-02-04 16:24:00,28.8,24.3,29.96,NNW,341,6.0,11.0,83,0.00,,---,0.00,VWS V14.01,2013-02-04 22:24:00,
2013-02-04 16:39:00,28.9,24.4,29.95,North,349,4.0,8.0,83,0.00,,---,0.00,VWS V14.01,2013-02-04 22:39:00,
2013-02-04 16:54:00,28.7,24.2,29.95,NNE,22,5.0,8.0,83,0.00,,---,0.00,VWS V14.01,2013-02-04 22:54:00,
2013-02-04 17:09:00,28.2,23.7,29.95,NNE,17,3.0,8.0,83,0.00,,---,0.00,VWS V14.01,2013-02-04 23:09:00,
2013-02-04 17:24:00,28.2,24.0,29.95,North,5,4.0,6.0,84,0.00,,---,0.00,VWS V14.01,2013-02-04 23:24:00,
2013-02-04 17:39:00,27.9,23.4,29.95,North,9,0.0,5.0,83,0.00,,---,0.00,VWS V14.01,2013-02-04 23:39:00,
2013-02-04 17:54:00,27.9,23.7,29.95,North,9,0.0,0.0,84,0.00,,---,0.00,VWS V14.01,2013-02-04 23:54:00,
2013-02-04 18:09:00,27.7,23.5,29.95,North,9,0.0,0.0,84,0.00,,---,0.00,VWS V14.01,2013-02-05 00:09:00,
2013-02-04 18:24:00,27.2,23.0,29.96,North,9,0.0,0.0,84,0.00,,---,0.00,VWS V14.01,2013-02-05 00:24:00,
2013-02-04 18:39:00,26.9,22.7,29.96,North,9,0.0,0.0,84,0.00,,---,0.00,VWS V14.01,2013-02-05 00:39:00,
2013-02-04 18:54:00,26.5,22.3,29.97,North,9,0.0,0.0,84,0.00,,---,0.00,VWS V14.01,2013-02-05 00:54:00,
2013-02-04 19:09:00,26.1,22.5,29.97,North,9,0.0,0.0,86,0.00,,---,0.00,VWS V14.01,2013-02-05 01:09:00,
2013-02-04 19:24:00,25.9,22.3,29.97,North,9,0.0,0.0,86,0.00,,---,0.00,VWS V14.01,2013-02-05 01:24:00,
2013-02-04 19:39:00,25.5,22.2,29.96,North,9,0.0,0.0,87,0.00,,---,0.00,VWS V14.01,2013-02-05 01:39:00,
2013-02-04 19:54:00,25.6,22.3,29.97,North,9,0.0,0.0,87,0.00,,---,0.00,VWS V14.01,2013-02-05 01:54:00,
2013-02-04 20:09:00,25.4,22.1,29.97,North,9,0.0,0.0,87,0.00,,---,0.00,VWS V14.01,2013-02-05 02:09:00,
2013-02-04 20:24:00,25.3,22.2,29.97,North,9,0.0,0.0,88,0.00,,---,0.00,VWS V14.01,2013-02-05 02:24:00,
2013-02-04 20:39:00,25.3,22.2,29.98,North,9,0.0,0.0,88,0.00,,---,0.00,VWS V14.01,2013-02-05 02:39:00,
2013-02-04 20:54:00,25.3,22.2,29.97,North,9,0.0,0.0,88,0.00,,---,0.00,VWS V14.01,2013-02-05 02:54:00,
2013-02-04 21:09:00,24.9,21.9,29.98,North,9,0.0,0.0,88,0.00,,---,0.00,VWS V14.01,2013-02-05 03:09:00,
2013-02-04 21:24:00,24.7,21.9,29.98,North,9,0.0,0.0,89,0.00,,---,0.00,VWS V14.01,2013-02-05 03:24:00,
2013-02-04 21:39:00,24.5,21.7,29.99,North,9,0.0,0.0,89,0.00,,---,0.00,VWS V14.01,2013-02-05 03:39:00,
2013-02-04 21:54:00,24.5,22.0,29.98,North,9,0.0,0.0,90,0.00,,---,0.00,VWS V14.01,2013-02-05 03:54:00,
2013-02-04 22:09:00,24.0,21.2,29.98,North,9,0.0,0.0,89,0.00,,---,0.00,VWS V14.01,2013-02-05 04:09:00,
2013-02-04 22:24:00,23.5,20.7,29.97,North,9,0.0,0.0,89,0.00,,---,0.00,VWS V14.01,2013-02-05 04:24:00,
2013-02-04 22:39:00,23.8,21.6,29.97,North,9,0.0,0.0,91,0.00,,---,0.00,VWS V14.01,2013-02-05 04:39:00,
2013-02-04 22:54:00,24.0,21.8,29.97,North,9,0.0,0.0,91,0.00,,---,0.00,VWS V14.01,2013-02-05 04:54:00,
2013-02-04 23:09:00,23.2,20.7,29.96,North,9,0.0,0.0,90,0.00,,---,0.00,VWS V14.01,2013-02-05 05:09:00,
2013-02-04 23:24:00,22.2,19.7,29.96,North,9,0.0,0.0,90,0.00,,---,0.00,VWS V14.01,2013-02-05 05:24:00,
2013-02-04 23:39:00,22.2,20.0,29.95,North,9,0.0,0.0,91,0.00,,---,0.00,VWS V14.01,2013-02-05 05:39:00,
2013-02-04 23:54:00,22.2,20.0,29.95,North,9,0.0,0.0,91,0.00,,---,0.00,VWS V14.01,2013-02-05 05:54:00,